Weather History for KMYL - April, 2013

Change the Weather History Date:

Wednesday, April 3, 2013

  Actual Average Record
Temperature  
Mean Temperature 42 °F 33 °F  
Max Temperature 54 °F 44 °F 68 °F (1990)
Min Temperature 29 °F 23 °F 0 °F (1955)
Degree Days  
Heating Degree Days 23 32  
Month to date heating degree days 70 96  
Since 1 July heating degree days 7162 7885  
Cooling Degree Days 0 0  
Month to date cooling degree days 0 0  
Year to date cooling degree days 0 0  
Moisture  
Dew Point 31 °F    
Average Humidity 69    
Maximum Humidity 92    
Minimum Humidity 45    
Precipitation  
Precipitation T in 0.07 in 0.58 in (1988)
Month to date precipitation T 0.21  
Year to date precipitation 5.70 5.88  
Sea Level Pressure  
Sea Level Pressure 30.12 in    
Wind  
Wind Speed 2 mph (South)    
Max Wind Speed 10 mph    
Max Gust Speed 13 mph    
Visibility 10 miles    
Events      
T = Trace of Precipitation, MM = Missing Value Source: NWS Daily Summary

Daily Weather History Graph

Daily Weather History Graph

Search for Another Location

Airport or City:

Trip Planner

Search our weather history database for the weather conditions in past years. The results will help you decide how hot, cold, wet, or windy it might be!

Date:

Astronomy

Apr. 03, 2013 Rise Set
Actual Time 7:20 AM MDT 8:15 PM MDT
Civil Twilight 6:51 AM MDT 8:44 PM MDT
Nautical Twilight 6:15 AM MDT 9:20 PM MDT
Astronomical Twilight 5:38 AM MDT 9:57 PM MDT
Moon 3:21 AM MDT (4/3) 1:16 PM MDT (4/3)
Length of Visible Light 13h 53m
Length of Day
12h 54m
Last Quarter, 44% of the Moon is Illuminated
Apr 3
Last Quarter
Apr 10
New
Apr 18
First Quarter
Apr 25
Full
May 2
Last Quarter

Hourly Weather History & Observations

Time (MDT) Temp. Windchill Dew Point Humidity Pressure Visibility Wind Dir Wind Speed Gust Speed Precip Events Conditions
12:51 AM 35.1 °F 32.2 °F 30.0 °F 82% 30.09 in 10.0 mi WNW 3.5 mph - N/A   Clear
1:51 AM 32.0 °F - 28.0 °F 85% 30.10 in 10.0 mi Calm Calm - N/A   Clear
2:51 AM 33.1 °F - 28.0 °F 82% 30.10 in 10.0 mi Calm Calm - N/A   Clear
3:51 AM 30.0 °F 26.5 °F 27.0 °F 88% 30.11 in 10.0 mi South 3.5 mph - N/A   Clear
4:51 AM 28.9 °F - 26.1 °F 89% 30.12 in 10.0 mi Calm Calm - N/A   Scattered Clouds
5:51 AM 30.9 °F 27.5 °F 28.0 °F 89% 30.12 in 10.0 mi NNW 3.5 mph - N/A   Overcast
6:51 AM 32.0 °F - 30.0 °F 92% 30.11 in 10.0 mi Calm Calm - 0.00 in   Overcast
7:51 AM 32.0 °F - 28.9 °F 88% 30.13 in 10.0 mi Calm Calm - N/A   Overcast
8:51 AM 36.0 °F - 30.0 °F 79% 30.14 in 10.0 mi Calm Calm - N/A   Mostly Cloudy
9:51 AM 37.0 °F 34.5 °F 32.0 °F 82% 30.15 in 10.0 mi SSW 3.5 mph - N/A   Mostly Cloudy
10:51 AM 39.0 °F 36.8 °F 32.0 °F 76% 30.17 in 10.0 mi South 3.5 mph - N/A   Overcast
11:51 AM 42.1 °F - 32.0 °F 67% 30.17 in 10.0 mi Calm Calm - N/A   Overcast
12:51 PM 46.0 °F 44.8 °F 33.1 °F 61% 30.15 in 10.0 mi South 3.5 mph - N/A   Mostly Cloudy
1:51 PM 51.1 °F - 32.0 °F 48% 30.12 in 10.0 mi Calm Calm - N/A   Partly Cloudy
2:51 PM 51.1 °F - 33.1 °F 50% 30.11 in 10.0 mi South 4.6 mph - N/A   Mostly Cloudy
3:51 PM 54.0 °F - 33.1 °F 45% 30.11 in 10.0 mi SSE 9.2 mph - N/A   Partly Cloudy
4:51 PM 53.1 °F - 32.0 °F 45% 30.12 in 10.0 mi SSE 8.1 mph - N/A   Scattered Clouds
5:51 PM 53.1 °F - 32.0 °F 45% 30.10 in 10.0 mi SSE 8.1 mph - N/A   Mostly Cloudy
6:51 PM 52.0 °F - 33.1 °F 49% 30.09 in 10.0 mi SSE 5.8 mph - N/A   Partly Cloudy
7:51 PM 48.0 °F - 33.1 °F 56% 30.09 in 10.0 mi Calm Calm - N/A   Clear
8:51 PM 46.0 °F - 33.1 °F 61% 30.08 in 10.0 mi Calm Calm - N/A   Clear
9:51 PM 41.0 °F - 32.0 °F 70% 30.10 in 10.0 mi Calm Calm - N/A   Clear
10:51 PM 37.9 °F - 30.9 °F 76% 30.10 in 10.0 mi Calm Calm - N/A   Clear
11:51 PM 36.0 °F - 30.0 °F 79% 30.10 in 10.0 mi Calm Calm - N/A   Clear